Date String (YYYY-MM-DD hh:mm:ss) UTC,Instrument flags,Ambient pressure (hPa),Sample flow (lpm),Bypass flow (lpm),Sample temperature (°C),Ambient temperature (°C),ASC tube jacket temperature (°C),LED temperature (°C),Box temperature (°C),Sample RH (%),Span deviation,Mass concentration (μg/m³),Mass concentration (μg/m³),Mass concentration (μg/m³)
DateTimeUTC,F1_M11,P_M11,Q1_M11,Q2_M11,T1_M11,T2_M11,T3_M11,T4_M11,T5_M11,U1_M11,ZSPAN_M11,X0_M11,X2_M11,X1_M11
2022-04-09 04:00:00,,0823.9,5.00,0.00,29.2,28.4,00.0,38.1,31.1,07.0,0000.0,0005.96,0002.68,0001.37
2022-04-09 04:01:00,,0823.9,4.99,0.00,29.2,28.4,00.0,38.1,31.0,07.0,0000.0,0005.89,0002.70,0001.40
2022-04-09 04:02:00,,0823.9,5.01,0.00,29.2,28.4,00.0,38.1,31.0,07.2,0000.0,0005.98,0002.75,0001.41
2022-04-09 04:03:00,,0823.9,4.99,0.00,29.2,28.4,00.0,38.1,31.0,07.2,0000.0,0006.97,0002.80,0001.43
2022-04-09 04:04:00,,0823.9,5.01,0.00,29.2,28.4,00.0,38.1,31.0,07.1,0000.0,0007.28,0002.83,0001.44
2022-04-09 04:05:00,,0823.9,5.01,0.00,29.2,28.4,00.0,38.2,31.0,07.1,0000.0,0006.95,0002.79,0001.43
2022-04-09 04:06:00,,0823.9,5.00,0.00,29.2,28.4,00.0,38.2,31.0,07.1,0000.0,0006.78,0002.75,0001.42
2022-04-09 04:07:00,,0823.8,4.99,0.00,29.3,28.4,00.0,38.2,31.0,07.1,0000.0,0006.65,0002.74,0001.42
2022-04-09 04:08:00,,0823.9,5.00,0.00,29.3,28.4,00.0,38.2,31.1,07.1,0000.0,0006.80,0002.82,0001.42
2022-04-09 04:09:00,,0823.9,5.02,0.00,29.3,28.4,00.0,38.2,31.0,07.1,0000.0,0006.93,0002.88,0001.43
2022-04-09 04:10:00,,0823.9,4.99,0.00,29.3,28.4,00.0,38.2,31.1,07.2,0000.0,0007.44,0002.97,0001.44
2022-04-09 04:11:00,,0823.9,4.99,0.00,29.3,28.4,00.0,38.2,31.1,07.2,0000.0,0007.45,0002.89,0001.44
2022-04-09 04:12:00,,0823.8,4.99,0.00,29.3,28.4,00.0,38.2,31.1,07.2,0000.0,0007.34,0002.82,0001.42
2022-04-09 04:13:00,,0823.8,5.02,0.00,29.3,28.4,00.0,38.2,31.1,07.2,0000.0,0007.30,0002.80,0001.42
2022-04-09 04:14:00,,0823.8,4.99,0.00,29.3,28.4,00.0,38.2,31.0,07.2,0000.0,0007.41,0002.81,0001.41
2022-04-09 04:15:00,,0823.8,4.99,0.00,29.3,28.4,00.0,38.2,31.1,07.2,0000.0,0007.66,0002.80,0001.41
2022-04-09 04:16:00,,0823.8,4.99,0.00,29.3,28.4,00.0,38.2,31.1,07.2,0000.0,0007.66,0002.81,0001.42
2022-04-09 04:17:00,,0823.8,5.00,0.00,29.3,28.4,00.0,38.2,31.1,07.2,0000.0,0007.70,0002.86,0001.44
2022-04-09 04:18:00,,0823.7,5.01,0.00,29.3,28.4,00.0,38.2,31.1,07.2,0000.0,0007.70,0002.85,0001.43
2022-04-09 04:19:00,,0823.7,5.00,0.00,29.3,28.5,00.0,38.2,31.1,07.2,0000.0,0007.64,0002.81,0001.44
2022-04-09 04:20:00,,0823.7,4.99,0.00,29.3,28.4,00.0,38.2,31.1,07.2,0000.0,0007.54,0002.75,0001.45
2022-04-09 04:21:00,,0823.6,5.00,0.00,29.3,28.4,00.0,38.2,31.0,07.2,0000.0,0007.26,0002.73,0001.46
2022-04-09 04:22:00,,0823.7,4.99,0.00,29.3,28.4,00.0,38.2,31.0,07.2,0000.0,0007.24,0002.78,0001.48
2022-04-09 04:23:00,,0823.7,5.02,0.00,29.3,28.4,00.0,38.2,31.0,07.2,0000.0,0007.39,0002.82,0001.48
2022-04-09 04:24:00,,0823.7,5.00,0.00,29.2,28.4,00.0,38.2,31.0,07.2,0000.0,0007.45,0002.80,0001.48
2022-04-09 04:25:00,,0823.7,5.00,0.00,29.2,28.3,00.0,38.2,30.9,07.2,0000.0,0007.32,0002.82,0001.49
2022-04-09 04:26:00,,0823.7,5.01,0.00,29.2,28.3,00.0,38.2,30.9,07.2,0000.0,0005.97,0002.81,0001.50
2022-04-09 04:27:00,,0823.6,4.99,0.00,29.2,28.3,00.0,38.2,30.8,07.2,0000.0,0006.09,0002.83,0001.50
2022-04-09 04:28:00,,0823.6,5.00,0.00,29.1,28.2,00.0,38.2,30.8,07.2,0000.0,0006.51,0002.84,0001.51
2022-04-09 04:29:00,,0823.6,5.00,0.00,29.1,28.2,00.0,38.2,30.8,07.2,0000.0,0006.87,0002.89,0001.53
2022-04-09 04:30:00,,0823.6,5.02,0.00,29.1,28.2,00.0,38.2,30.7,07.3,0000.0,0007.22,0002.99,0001.54
2022-04-09 04:31:00,,0823.6,4.99,0.00,29.0,28.1,00.0,38.1,30.7,07.3,0000.0,0008.18,0002.99,0001.53
2022-04-09 04:32:00,,0823.6,4.99,0.00,29.0,28.1,00.0,38.1,30.7,07.3,0000.0,0008.21,0002.99,0001.53
2022-04-09 04:33:00,,0823.6,5.01,0.00,29.0,28.1,00.0,38.1,30.7,07.4,0000.0,0008.15,0003.00,0001.53
2022-04-09 04:34:00,,0823.6,5.00,0.00,29.0,28.0,00.0,38.1,30.7,07.4,0000.0,0008.05,0002.97,0001.54
2022-04-09 04:35:00,,0823.6,5.00,0.00,29.0,28.0,00.0,38.1,30.7,07.4,0000.0,0008.11,0003.02,0001.57
2022-04-09 04:36:00,,0823.6,5.00,0.00,29.0,28.0,00.0,38.1,30.7,07.4,0000.0,0007.92,0003.02,0001.58
2022-04-09 04:37:00,,0823.6,5.02,0.00,28.9,28.0,00.0,38.0,30.7,07.3,0000.0,0007.95,0003.02,0001.57
2022-04-09 04:38:00,,0823.6,5.00,0.00,28.9,28.0,00.0,38.0,30.6,07.4,0000.0,0008.43,0003.05,0001.57
2022-04-09 04:39:00,,0823.6,4.99,0.00,28.9,27.9,00.0,38.0,30.6,07.5,0000.0,0008.24,0003.00,0001.57
2022-04-09 04:40:00,,0823.6,5.00,0.00,28.9,27.9,00.0,38.0,30.5,07.5,0000.0,0008.06,0003.00,0001.57
2022-04-09 04:41:00,,0823.6,5.00,0.00,28.9,27.9,00.0,38.0,30.5,07.6,0000.0,0008.08,0002.99,0001.57
2022-04-09 04:42:00,,0823.6,5.01,0.00,28.8,27.9,00.0,38.0,30.5,07.7,0000.0,0007.35,0003.04,0001.57
2022-04-09 04:43:00,,0823.5,4.99,0.00,28.8,27.9,00.0,37.9,30.5,07.8,0000.0,0007.33,0003.10,0001.59
2022-04-09 04:44:00,,0823.5,5.00,0.00,28.8,27.8,00.0,37.9,30.5,07.6,0000.0,0007.33,0003.11,0001.59
2022-04-09 04:45:00,,0823.4,5.02,0.00,28.8,27.9,00.0,37.9,30.5,07.6,0000.0,0007.34,0003.12,0001.59
2022-04-09 04:46:00,,0823.5,5.00,0.00,28.8,27.9,00.0,37.9,30.6,07.6,0000.0,0007.36,0003.13,0001.58
2022-04-09 04:47:00,,0823.5,4.99,0.00,28.9,28.0,00.0,37.9,30.6,07.6,0000.0,0007.30,0003.14,0001.58
2022-04-09 04:48:00,,0823.6,5.01,0.00,28.9,28.0,00.0,37.9,30.6,07.6,0000.0,0007.43,0003.16,0001.59
2022-04-09 04:49:00,,0823.4,4.99,0.00,28.9,28.0,00.0,37.9,30.6,07.6,0000.0,0006.74,0003.15,0001.59
2022-04-09 04:50:00,,0823.4,4.99,0.00,28.9,28.0,00.0,37.9,30.6,07.6,0000.0,0006.83,0003.19,0001.60
2022-04-09 04:51:00,,0823.4,4.99,0.00,28.9,28.0,00.0,37.9,30.6,07.6,0000.0,0007.59,0003.20,0001.61
2022-04-09 04:52:00,,0823.4,5.01,0.00,28.9,28.0,00.0,37.9,30.6,07.6,0000.0,0007.88,0003.17,0001.60
2022-04-09 04:53:00,,0823.4,4.99,0.00,28.9,28.0,00.0,37.9,30.6,07.6,0000.0,0007.93,0003.15,0001.61
2022-04-09 04:54:00,,0823.4,5.00,0.00,28.9,28.0,00.0,37.9,30.6,07.5,0000.0,0007.78,0003.12,0001.61
2022-04-09 04:55:00,,0823.4,5.00,0.00,28.9,28.0,00.0,37.9,30.6,07.5,0000.0,0007.82,0003.13,0001.61
2022-04-09 04:56:00,,0823.4,4.99,0.00,28.8,28.0,00.0,37.9,30.6,07.6,0000.0,0007.86,0003.13,0001.59
2022-04-09 04:57:00,,0823.3,5.00,0.00,28.8,28.0,00.0,37.8,30.5,07.6,0000.0,0008.04,0003.05,0001.57
2022-04-09 04:58:00,,0823.3,5.02,0.00,28.8,27.9,00.0,37.8,30.5,07.6,0000.0,0008.45,0003.02,0001.57
2022-04-09 04:59:00,,0823.4,4.99,0.00,28.8,27.9,00.0,37.8,30.5,07.6,0000.0,0008.36,0002.99,0001.57
